Regional Weather Roundup
Issued by NWS Portland, ME

Home | Current Version | Previous Version | Text Only | Print | Product List | Glossary On
Versions: 1 2 3 4 5 6 7 8 9 10 11 12 13 14 15 16 17 18 19 20 21 22 23 24 25 26 27 28 29 30 31 32 33 34 35 36 37 38 39 40 41 42 43 44 45 46 47 48 49 50
000
ASUS41 KGYX 250310
RWRGYX
WEATHER ROUNDUP FOR MAINE AND NEW HAMPSHIRE
NATIONAL WEATHER SERVICE GRAY ME
1100 PM EDT TUE MAY 24 2016

MEZ002-005-006-010-012-015-018-020-021-024-026-027-029-250400-
MAINE

CITY           SKY/WX    TMP DP  RH WIND       PRES   REMARKS
PORTLAND       FOG       51  51 100 CALM      29.98S VSB 1
SANFORD        CLOUDY    52  48  87 E3        29.98S VSB 3/4
BAR HARBOR     FOG       52  52 100 E5        29.98S VSB 1/4
WISCASSET      CLOUDY    56  53  90 CALM      29.98S
ROCKLAND       FOG       52  51  97 NE3       29.97S VSB 1/2
FRYEBURG       CLOUDY    59  57  93 CALM      29.97S
LEWISTONAUBURN CLOUDY    55  54  94 S3        29.97S
AUGUSTA        CLOUDY    57  54  89 SE3       29.97S
WATERVILLE     CLOUDY    58  55  90 CALM      29.95S
BANGOR         CLOUDY    60  55  83 S5        29.97S
GREENVILLE       N/A     58  53  84 S5        29.94S
MILLINOCKET    PTCLDY    58  56  93 CALM      29.96S
HOULTON        CLEAR     60  56  86 S3        29.93F
PRESQUE ISLE   CLEAR     61  57  87 S6        29.92F
FRENCHVILLE    CLEAR     64  55  72 S6        29.91R
CARIBOU        CLEAR     64  57  78 S6        29.91S
$$

NHZ002-005-008-009-011-012-014-250400-
NEW HAMPSHIRE

CITY           SKY/WX    TMP DP  RH WIND       PRES   REMARKS
PORTSMOUTH     CLOUDY    52  51  95 E2        29.96F FOG
ROCHESTER      CLOUDY    54  52  93 CALM      29.96F
NASHUA         CLOUDY    58  55  90 CALM      29.99R
MANCHESTER     CLOUDY    58  53  84 CALM      29.96S
CONCORD        CLOUDY    59  55  87 S3        29.97S
PLYMOUTH       CLOUDY    60  58  94 CALM      29.96S
BERLIN         CLOUDY    59  55  87 CALM      29.96S
WHITEFIELD     CLOUDY    57  53  86 CALM      29.96S
JAFFREY        CLOUDY    58  56  93 CALM      29.99R
KEENE          PTCLDY    54  52  94 CALM      29.98S
LEBANON        CLOUDY    56  53  90 S8        29.95S
MT WASHINGTON  MOCLDY    45  30  57 NW5         N/A
$$

VTZ005-007-008-250400-
VERMONT

CITY           SKY/WX    TMP DP  RH WIND       PRES   REMARKS
ST JOHNSBURY     N/A     58  56  93 MISG      29.93F
MONTPELIER     FAIR      55  53  93 E5        29.99S
BURLINGTON     MOCLDY    65  52  62 S8        29.91S
$$

MAZ007-012-024-CTZ003-RIZ002-NYZ038-NYZ072-250400-
SOUTHERN NEW ENGLAND AND NY

CITY           SKY/WX    TMP DP  RH WIND       PRES   REMARKS
BOSTON         CLOUDY    53  51  93 N6        29.98S
WORCESTER      CLOUDY    56  54  93 NW5       29.99R
NANTUCKET      CLOUDY    56  54  93 W7        29.95R FOG
PROVIDENCE     CLOUDY    56  53  90 NE6       29.98R
HARTFORD       PTCLDY    58  55  90 CALM      29.96S
ALBANY         MOCLDY    59  55  87 E5        29.97R
NEW YORK CITY  CLOUDY    67  57  70 CALM      29.98R
$$

ANZ081-ANZ082-ANZ150-NHZ014-MEZ023>029-250400-
COASTAL MARINE OBSERVATIONS

STATION/POSITION TIME  TEMP    WIND        PRES    WAVE
                       AIR SEA DIR/SP/G            HT/PER
                 (UTC) (F)     (DEG/KT/KT) (MB)    (FT/S)
MOUNT DESERT ROC 0300   47      80/ 12/ 13 1014.7F
MATINICUS ROCK   0200   48      60/ 10/ 10 1014.5S
ISLE OF SHOALS   0200   50      10/  9/  9 1015.0R
JEFFREYS LEDGE   0208      51                N/A     4/ 8
CASHES LEDGE BUO 0250   49 49   CALM  /  2 1014.3F   3/ 8
GEORGES BANK BUO 0250   51 50              1015.2F   5/ 8
$$

.............KEY..............
   WCI - WIND CHILL
   TC  - TEMPERATURE IN CELSIUS
   VSB - VISIBILITY IN MILES
   HX  - HEAT INDEX
   FAIR- INDICATES FEW OR NO CLOUDS BELOW 12,000 FT, WITH NO
         SIGNIFICANT WEATHER AND/OR OBSTRUCTIONS TO VISIBILITY.





USA.gov is the U.S. government's official web portal to all federal, state and local government web resources and services.